Flag for U.S.A. Weather past 2 weeks in St. Louis, Missouri, U.S.A.

Now
70 °F

Passing clouds.


Feels Like: 72 °F
Forecast: 66 / 79 °F
Wind: 3 mph from North

Location: Lambert-St. Louis International Airport

Current Time: Jul 3, 2015 at 1:47:49 AM

Latest Report: Jul 3, 2015 at 12:51 AM


Visibility: 10 mi

Pressure: 29.89 "Hg

Humidity: 76%

Dew point: 62 °F

Location of St. LouisLocation

Historic Weather in St. Louis — Graph

°F

St. Louis temperature yesterday

Maximum temperature yesterday: 78 °F (at 3:51 PM)
Minimum temperature yesterday: 66 °F (at 7:51 AM)
Average temperature yesterday: 72 °F

Past Weeks' High & Low Weather Summary

 TemperatureHumidityPressure
High95 °F (Jun 25, 2:51 PM)91% (Jun 18, 8:51 PM)30.19 "Hg (Jun 18, 8:51 PM)
Low66 °F (Jun 28, 5:51 AM)43% (Jun 24, 4:51 PM)29.73 "Hg (Jun 29, 3:51 AM)
Average77 °F72%29.92 "Hg
* Reported Jun 18 12:51 AM — Jul 3 12:51 AM, St. Louis, Weather by CustomWeather, © 2015

Note: Actual official high and low records may vary slightly from our data, if they occured in-between our weather recording intervals... More about our weather records

Advertising

St. Louis weather history for previous 24 hours

 ConditionsComfort  
Time TempWeatherWind HumidityBarometerVisibility
12:51 AM
Fri, Jul 3
70 °FPassing clouds.3 mph76%29.89 "Hg10 mi
11:51 PM
Thu, Jul 2
70 °FOvercast.No wind73%29.90 "Hg10 mi
10:51 PM71 °FPartly cloudy.7 mph71%29.90 "Hg10 mi
9:51 PM71 °FPassing clouds.8 mph71%29.88 "Hg10 mi
8:51 PM73 °FBroken clouds.9 mph66%29.89 "Hg10 mi
7:51 PM75 °FBroken clouds.8 mph64%29.87 "Hg10 mi
6:51 PM76 °FPartly sunny.9 mph64%29.85 "Hg9 mi
5:51 PM77 °FMore clouds than sun.10 mph64%29.85 "Hg10 mi
4:51 PM78 °FMostly cloudy.9 mph60%29.85 "Hg10 mi
3:51 PM78 °FOvercast.9 mph62%29.85 "Hg10 mi
2:51 PM77 °FOvercast.8 mph64%29.87 "Hg10 mi
1:51 PM76 °FPartly sunny.7 mph64%29.88 "Hg10 mi
12:51 PM72 °FMore clouds than sun.7 mph71%29.89 "Hg10 mi
11:51 AM69 °FOvercast.9 mph73%29.90 "Hg10 mi
10:51 AM68 °FOvercast.10 mph76%29.89 "Hg10 mi
9:51 AM67 °FOvercast.9 mph76%29.88 "Hg10 mi
8:51 AM66 °FOvercast.9 mph81%29.86 "Hg8 mi
7:51 AM66 °FLight rain. Fog.6 mph87%29.86 "Hg4 mi
6:51 AM69 °FLight rain. Fog.8 mph87%29.83 "Hg2 mi
6:04 AM72 °FLight rain. Fog.14 mph83%29.86 "Hg2 mi
4:51 AM74 °FMostly cloudy.8 mph85%29.80 "Hg7 mi
3:51 AM74 °FLight rain. Mostly cloudy.No wind85%29.80 "Hg7 mi
2:56 AM73 °FMostly cloudy.No wind89%29.85 "Hg8 mi
2:01 AM73 °FMostly cloudy.6 mph89%29.85 "Hg8 mi
Weather by CustomWeather, © 2015

See weather overviewHow to use our weather pages